Time,TemperatureF,DewpointF,PressureIn,WindDirection,WindDirectionDegrees,WindSpeedMPH,WindSpeedGustMPH,Humidity,HourlyPrecipIn,Conditions,Clouds,dailyrainin,SolarRadiationWatts/m^2,SoftwareType,DateUTC
2013-07-07 00:01:00,69.0,63.0,-100.00,East,90,0.0,3.0,82,0.00,,,0.00,0.000000,,2013-07-07 05:01:00,
2013-07-07 00:11:00,69.0,63.0,-100.00,East,90,0.0,3.0,82,0.00,,,0.00,0.000000,,2013-07-07 05:11:00,
2013-07-07 00:31:00,68.0,64.0,-100.00,NE,47,0.0,4.0,86,0.00,,,0.00,0.000000,,2013-07-07 05:31:00,
2013-07-07 00:41:00,68.0,64.0,-100.00,NE,47,0.0,4.0,86,0.00,,,0.00,0.000000,,2013-07-07 05:41:00,
2013-07-07 00:51:00,68.0,64.0,-100.00,NE,47,0.0,4.0,86,0.00,,,0.00,0.000000,,2013-07-07 05:51:00,
2013-07-07 01:01:00,68.0,64.0,-100.00,NE,47,0.0,4.0,86,0.00,,,0.00,0.000000,,2013-07-07 06:01:00,
2013-07-07 01:11:00,68.0,64.0,-100.00,NE,47,0.0,4.0,86,0.00,,,0.00,0.000000,,2013-07-07 06:11:00,
2013-07-07 01:43:00,67.0,64.0,-100.00,ESE,121,0.0,2.0,89,0.00,,,0.00,0.000000,,2013-07-07 06:43:00,
2013-07-07 01:52:00,67.0,64.0,-100.00,ESE,121,0.0,2.0,89,0.00,,,0.00,0.000000,,2013-07-07 06:52:00,
2013-07-07 02:02:00,67.0,64.0,-100.00,ESE,121,0.0,2.0,89,0.00,,,0.00,0.000000,,2013-07-07 07:02:00,
2013-07-07 02:11:00,67.0,64.0,-100.00,ESE,121,0.0,2.0,89,0.00,,,0.00,0.000000,,2013-07-07 07:11:00,
2013-07-07 02:44:00,67.0,63.0,-100.00,North,349,0.0,2.0,88,0.00,,,0.00,0.000000,,2013-07-07 07:44:00,
2013-07-07 02:53:00,67.0,63.0,-100.00,North,349,0.0,2.0,88,0.00,,,0.00,0.000000,,2013-07-07 07:53:00,
2013-07-07 03:02:00,67.0,63.0,-100.00,North,349,0.0,2.0,88,0.00,,,0.00,0.000000,,2013-07-07 08:02:00,
2013-07-07 03:12:00,67.0,63.0,-100.00,North,349,0.0,2.0,88,0.00,,,0.00,0.000000,,2013-07-07 08:12:00,
2013-07-07 03:44:00,67.0,64.0,-100.00,North,356,0.0,3.0,91,0.00,,,0.00,0.000000,,2013-07-07 08:44:00,
2013-07-07 03:53:00,67.0,64.0,-100.00,North,356,0.0,3.0,91,0.00,,,0.00,0.000000,,2013-07-07 08:53:00,
2013-07-07 04:02:00,67.0,64.0,-100.00,North,356,0.0,3.0,91,0.00,,,0.00,0.000000,,2013-07-07 09:02:00,
2013-07-07 04:12:00,67.0,64.0,-100.00,North,356,0.0,3.0,91,0.00,,,0.00,0.000000,,2013-07-07 09:12:00,
2013-07-07 04:43:00,67.0,64.0,-100.00,NNW,336,0.0,0.0,91,0.00,,,0.00,0.000000,,2013-07-07 09:43:00,
2013-07-07 04:53:00,67.0,64.0,-100.00,NNW,336,0.0,0.0,91,0.00,,,0.00,0.000000,,2013-07-07 09:53:00,
2013-07-07 05:03:00,67.0,64.0,-100.00,NNW,336,0.0,0.0,91,0.00,,,0.00,0.000000,,2013-07-07 10:03:00,
2013-07-07 05:12:00,67.0,64.0,-100.00,NNW,336,0.0,0.0,91,0.00,,,0.00,0.000000,,2013-07-07 10:12:00,
2013-07-07 05:32:00,66.0,64.0,-100.00,ESE,114,0.0,3.0,92,0.00,,,0.00,1.000000,,2013-07-07 10:32:00,
2013-07-07 05:43:00,66.0,64.0,-100.00,ESE,114,0.0,3.0,92,0.00,,,0.00,1.000000,,2013-07-07 10:43:00,
2013-07-07 05:52:00,66.0,64.0,-100.00,ESE,114,0.0,3.0,92,0.00,,,0.00,1.000000,,2013-07-07 10:52:00,
2013-07-07 06:02:00,66.0,64.0,-100.00,ESE,114,0.0,3.0,92,0.00,,,0.00,1.000000,,2013-07-07 11:02:00,
2013-07-07 06:11:00,66.0,64.0,-100.00,ESE,114,0.0,3.0,92,0.00,,,0.00,1.000000,,2013-07-07 11:11:00,
2013-07-07 06:43:00,67.0,65.0,-100.00,NNW,348,0.0,0.0,93,0.00,,,0.00,14.000000,,2013-07-07 11:43:00,
2013-07-07 06:53:00,67.0,65.0,-100.00,NNW,348,0.0,0.0,93,0.00,,,0.00,14.000000,,2013-07-07 11:53:00,
2013-07-07 07:02:00,67.0,65.0,-100.00,NNW,348,0.0,0.0,93,0.00,,,0.00,14.000000,,2013-07-07 12:02:00,
2013-07-07 07:12:00,67.0,65.0,-100.00,NNW,348,0.0,0.0,93,0.00,,,0.00,14.000000,,2013-07-07 12:12:00,
2013-07-07 07:43:00,68.0,65.0,-100.00,NE,43,0.0,2.0,91,0.00,,,0.00,35.000000,,2013-07-07 12:43:00,
2013-07-07 07:52:00,68.0,65.0,-100.00,NE,43,0.0,2.0,91,0.00,,,0.00,35.000000,,2013-07-07 12:52:00,
2013-07-07 08:02:00,68.0,65.0,-100.00,NE,43,0.0,2.0,91,0.00,,,0.00,35.000000,,2013-07-07 13:02:00,
2013-07-07 08:12:00,68.0,65.0,-100.00,NE,43,0.0,2.0,91,0.00,,,0.00,35.000000,,2013-07-07 13:12:00,
2013-07-07 08:43:00,67.0,66.0,-100.00,East,98,0.0,3.0,97,0.03,,,0.03,14.000000,,2013-07-07 13:43:00,
2013-07-07 08:52:00,67.0,66.0,-100.00,East,98,0.0,3.0,97,0.03,,,0.03,14.000000,,2013-07-07 13:52:00,
2013-07-07 09:02:00,67.0,66.0,-100.00,East,98,0.0,3.0,97,0.03,,,0.03,14.000000,,2013-07-07 14:02:00,
2013-07-07 09:12:00,67.0,66.0,-100.00,East,98,0.0,3.0,97,0.03,,,0.03,14.000000,,2013-07-07 14:12:00,
2013-07-07 09:43:00,66.0,65.0,-100.00,ESE,107,1.0,4.0,98,0.17,,,0.20,10.000000,,2013-07-07 14:43:00,
2013-07-07 09:53:00,66.0,65.0,-100.00,ESE,107,1.0,4.0,98,0.17,,,0.20,10.000000,,2013-07-07 14:53:00,
2013-07-07 10:02:00,66.0,65.0,-100.00,ESE,107,1.0,4.0,98,0.17,,,0.20,10.000000,,2013-07-07 15:02:00,
2013-07-07 10:11:00,66.0,65.0,-100.00,ESE,107,1.0,4.0,98,0.17,,,0.20,10.000000,,2013-07-07 15:11:00,
2013-07-07 10:43:00,68.0,66.0,-100.00,NNW,347,3.0,16.0,94,0.11,,,0.31,83.000000,,2013-07-07 15:43:00,
2013-07-07 10:52:00,68.0,66.0,-100.00,NNW,347,3.0,16.0,94,0.11,,,0.31,83.000000,,2013-07-07 15:52:00,
2013-07-07 11:01:00,68.0,66.0,-100.00,NNW,347,3.0,16.0,94,0.11,,,0.31,83.000000,,2013-07-07 16:01:00,
2013-07-07 11:11:00,68.0,66.0,-100.00,NNW,347,3.0,16.0,94,0.11,,,0.31,83.000000,,2013-07-07 16:11:00,
2013-07-07 11:43:00,73.0,68.0,-100.00,SE,124,2.0,6.0,84,0.00,,,0.31,271.000000,,2013-07-07 16:43:00,
2013-07-07 11:53:00,73.0,68.0,-100.00,SE,124,2.0,6.0,84,0.00,,,0.31,271.000000,,2013-07-07 16:53:00,
2013-07-07 12:02:00,73.0,68.0,-100.00,SE,124,2.0,6.0,84,0.00,,,0.31,271.000000,,2013-07-07 17:02:00,
2013-07-07 12:12:00,73.0,68.0,-100.00,SE,124,2.0,6.0,84,0.00,,,0.31,271.000000,,2013-07-07 17:12:00,
2013-07-07 12:43:00,78.0,69.0,-100.00,ESE,113,2.0,5.0,75,0.00,,,0.31,486.000000,,2013-07-07 17:43:00,
2013-07-07 12:53:00,78.0,69.0,-100.00,ESE,113,2.0,5.0,75,0.00,,,0.31,486.000000,,2013-07-07 17:53:00,
2013-07-07 13:02:00,78.0,69.0,-100.00,ESE,113,2.0,5.0,75,0.00,,,0.31,486.000000,,2013-07-07 18:02:00,
2013-07-07 13:11:00,78.0,69.0,-100.00,ESE,113,2.0,5.0,75,0.00,,,0.31,486.000000,,2013-07-07 18:11:00,
2013-07-07 13:43:00,81.0,70.0,-100.00,ESE,103,4.0,6.0,69,0.00,,,0.31,768.000000,,2013-07-07 18:43:00,
2013-07-07 13:53:00,81.0,70.0,-100.00,ESE,103,4.0,6.0,69,0.00,,,0.31,768.000000,,2013-07-07 18:53:00,
2013-07-07 14:01:00,81.0,70.0,-100.00,ESE,103,4.0,6.0,69,0.00,,,0.31,768.000000,,2013-07-07 19:01:00,
2013-07-07 14:11:00,81.0,70.0,-100.00,ESE,103,4.0,6.0,69,0.00,,,0.31,768.000000,,2013-07-07 19:11:00,
2013-07-07 14:43:00,83.0,70.0,-100.00,ENE,63,3.0,7.0,65,0.00,,,0.31,741.000000,,2013-07-07 19:43:00,
2013-07-07 14:54:00,83.0,70.0,-100.00,ENE,63,3.0,7.0,65,0.00,,,0.31,741.000000,,2013-07-07 19:54:00,
2013-07-07 15:02:00,83.0,70.0,-100.00,ENE,63,3.0,7.0,65,0.00,,,0.31,741.000000,,2013-07-07 20:02:00,
2013-07-07 15:11:00,83.0,70.0,-100.00,ENE,63,3.0,7.0,65,0.00,,,0.31,741.000000,,2013-07-07 20:11:00,
2013-07-07 15:34:00,84.0,70.0,-100.00,ENE,59,4.0,8.0,63,0.00,,,0.31,809.000000,,2013-07-07 20:34:00,
2013-07-07 15:42:00,84.0,70.0,-100.00,ENE,59,4.0,8.0,63,0.00,,,0.31,809.000000,,2013-07-07 20:42:00,
2013-07-07 15:53:00,84.0,70.0,-100.00,ENE,59,4.0,8.0,63,0.00,,,0.31,809.000000,,2013-07-07 20:53:00,
2013-07-07 16:02:00,84.0,70.0,-100.00,ENE,59,4.0,8.0,63,0.00,,,0.31,809.000000,,2013-07-07 21:02:00,
2013-07-07 16:11:00,84.0,70.0,-100.00,ENE,59,4.0,8.0,63,0.00,,,0.31,809.000000,,2013-07-07 21:11:00,
2013-07-07 16:44:00,82.0,70.0,-100.00,SE,124,3.0,8.0,67,0.00,,,0.31,585.000000,,2013-07-07 21:44:00,
2013-07-07 16:53:00,82.0,70.0,-100.00,SE,124,3.0,8.0,67,0.00,,,0.31,585.000000,,2013-07-07 21:53:00,
2013-07-07 17:01:00,82.0,70.0,-100.00,SE,124,3.0,8.0,67,0.00,,,0.31,585.000000,,2013-07-07 22:01:00,
2013-07-07 17:11:00,82.0,70.0,-100.00,SE,124,3.0,8.0,67,0.00,,,0.31,585.000000,,2013-07-07 22:11:00,
2013-07-07 17:34:00,80.0,75.0,-100.00,NNE,13,0.0,4.0,85,0.03,,,0.34,173.000000,,2013-07-07 22:34:00,
2013-07-07 17:44:00,80.0,75.0,-100.00,NNE,13,0.0,4.0,85,0.03,,,0.34,173.000000,,2013-07-07 22:44:00,
2013-07-07 17:54:00,80.0,75.0,-100.00,NNE,13,0.0,4.0,85,0.03,,,0.34,173.000000,,2013-07-07 22:54:00,
2013-07-07 18:02:00,80.0,75.0,-100.00,NNE,13,0.0,4.0,85,0.03,,,0.34,173.000000,,2013-07-07 23:02:00,
2013-07-07 18:12:00,80.0,75.0,-100.00,NNE,13,0.0,4.0,85,0.03,,,0.34,173.000000,,2013-07-07 23:12:00,
2013-07-07 18:33:00,83.0,74.0,-100.00,ESE,111,2.0,4.0,74,0.00,,,0.34,320.000000,,2013-07-07 23:33:00,
2013-07-07 18:43:00,83.0,74.0,-100.00,ESE,111,2.0,4.0,74,0.00,,,0.34,320.000000,,2013-07-07 23:43:00,
2013-07-07 18:53:00,83.0,74.0,-100.00,ESE,111,2.0,4.0,74,0.00,,,0.34,320.000000,,2013-07-07 23:53:00,
2013-07-07 19:01:00,83.0,74.0,-100.00,ESE,111,2.0,4.0,74,0.00,,,0.34,320.000000,,2013-07-08 00:01:00,
2013-07-07 19:12:00,83.0,74.0,-100.00,ESE,111,2.0,4.0,74,0.00,,,0.34,320.000000,,2013-07-08 00:12:00,
2013-07-07 19:43:00,78.0,72.0,-100.00,NE,50,4.0,9.0,81,0.00,,,-99.99,192.000000,,2013-07-08 00:43:00,
2013-07-07 19:53:00,78.0,72.0,-100.00,NE,50,4.0,9.0,81,0.00,,,-99.99,192.000000,,2013-07-08 00:53:00,
2013-07-07 20:01:00,78.0,72.0,-100.00,NE,50,4.0,9.0,81,0.00,,,-99.99,192.000000,,2013-07-08 01:01:00,
2013-07-07 20:11:00,78.0,72.0,-100.00,NE,50,4.0,9.0,81,0.00,,,-99.99,192.000000,,2013-07-08 01:11:00,
2013-07-07 20:32:00,74.0,71.0,-100.00,ENE,78,2.0,8.0,90,0.00,,,0.34,57.000000,,2013-07-08 01:32:00,
2013-07-07 20:43:00,74.0,71.0,-100.00,ENE,78,2.0,8.0,90,0.00,,,0.34,57.000000,,2013-07-08 01:43:00,
2013-07-07 20:53:00,74.0,71.0,-100.00,ENE,78,2.0,8.0,90,0.00,,,0.34,57.000000,,2013-07-08 01:53:00,
2013-07-07 21:02:00,74.0,71.0,-100.00,ENE,78,2.0,8.0,90,0.00,,,0.34,57.000000,,2013-07-08 02:02:00,
2013-07-07 21:11:00,74.0,71.0,-100.00,ENE,78,2.0,8.0,90,0.00,,,0.34,57.000000,,2013-07-08 02:11:00,
2013-07-07 21:43:00,72.0,70.0,-100.00,NE,52,2.0,7.0,94,0.00,,,0.34,5.000000,,2013-07-08 02:43:00,
2013-07-07 21:52:00,72.0,70.0,-100.00,NE,52,2.0,7.0,94,0.00,,,0.34,5.000000,,2013-07-08 02:52:00,
2013-07-07 22:02:00,72.0,70.0,-100.00,NE,52,2.0,7.0,94,0.00,,,0.34,5.000000,,2013-07-08 03:02:00,
2013-07-07 22:12:00,72.0,70.0,-100.00,NE,52,2.0,7.0,94,0.00,,,0.34,5.000000,,2013-07-08 03:12:00,
2013-07-07 22:42:00,70.0,68.0,-100.00,ENE,61,2.0,9.0,93,0.00,,,0.34,0.000000,,2013-07-08 03:42:00,
2013-07-07 22:52:00,70.0,68.0,-100.00,ENE,61,2.0,9.0,93,0.00,,,0.34,0.000000,,2013-07-08 03:52:00,
2013-07-07 23:02:00,70.0,68.0,-100.00,ENE,61,2.0,9.0,93,0.00,,,0.34,0.000000,,2013-07-08 04:02:00,
2013-07-07 23:12:00,70.0,68.0,-100.00,ENE,61,2.0,9.0,93,0.00,,,0.34,0.000000,,2013-07-08 04:12:00,
2013-07-07 23:42:00,67.0,65.0,-100.00,ENE,66,3.0,8.0,92,0.00,,,0.34,0.000000,,2013-07-08 04:42:00,
2013-07-07 23:53:00,67.0,65.0,-100.00,ENE,66,3.0,8.0,92,0.00,,,0.34,0.000000,,2013-07-08 04:53:00,